This demonstration page uses our WeatherBlox Daily Observations layout. Learn more.

Left ArrowRight Arrow

Hourly Observations for May 12, 2020

Temp ( °F °C ) Dew Point ( °F °C ) Humidity (%) Winds ( mph kmh ) Pressure ( in mb ) Visibility ( mi km ) Precip ( " mm )
12:51 am 00:51 Clear 72 22.2 28 -2.2 19 19 NW 16 26 29.75 1008 10 16.0934 0 0
1:51 am 01:51 Clear 72 22.2 30 -1.1 21 21 NNW 12 19 29.75 1008 10 16.0934 0 0
2:51 am 02:51 Clear 68 20 29 -1.7 23 23 N 8 13 29.78 1008 10 16.0934 0 0
3:51 am 03:51 Clear 71 21.7 34 1.1 26 26 N 12 19 29.77 1008 10 16.0934 0 0
4:51 am 04:51 Clear 66 18.9 34 1.1 30 30 SSW 7 11 29.79 1009 10 16.0934 0 0
5:51 am 05:51 Sunny 60 15.6 32 0 35 35 Calm 29.82 1010 10 16.0934 0 0
6:51 am 06:51 Sunny 69 20.6 34 1.1 27 27 Calm 29.82 1010 10 16.0934 0 0
7:51 am 07:51 Sunny 73 22.8 35 1.7 25 25 SE 5 7 29.83 1010 10 16.0934 0 0
8:51 am 08:51 Sunny 78 25.6 37 2.8 23 23 Calm 29.83 1010 10 16.0934 0 0
9:51 am 09:51 Sunny 80 26.7 38 3.3 22 22 VRB 5 7 29.82 1010 10 16.0934 0 0
10:51 am 10:51 Sunny 85 29.4 39 3.9 20 20 VRB 7 11 29.8 1009 10 16.0934 0 0
11:51 am 11:51 Sunny 85 29.4 38 3.3 19 19 VRB 3 6 29.78 1009 10 16.0934 0 0
12:51 pm 12:51 Mostly Sunny 87 30.6 37 2.8 17 17 undefined N/A 29.75 1008 10 16.0934 0 0
1:51 pm 13:51 Sunny 87 30.6 36 2.2 16 16 VRB 7 11 29.72 1007 10 16.0934 0 0
2:51 pm 14:51 Partly Cloudy 92 33.3 37 2.8 14 14 NW 12 19 29.7 1006 10 16.0934 0 0
3:51 pm 15:51 Sunny 91 32.8 33 0.6 13 13 VRB 5 7 29.67 1005 10 16.0934 0 0
4:51 pm 16:51 Sunny 90 32.2 28 -2.2 11 11 WNW 14 22 29.67 1005 10 16.0934 0 0
5:51 pm 17:51 Sunny 88 31.1 27 -2.8 11 11 WNW 16 26 29.68 1005 10 16.0934 0 0
6:51 pm 18:51 Sunny 84 28.9 29 -1.7 13 13 NW 13 20 29.67 1005 10 16.0934 0 0
7:51 pm 19:51 Clear 81 27.2 30 -1.1 16 16 NW 13 20 29.68 1005 10 16.0934 0 0
8:51 pm 20:51 Clear 78 25.6 30 -1.1 17 17 NW 12 19 29.69 1005 10 16.0934 0 0
9:51 pm 21:51 Clear 73 22.8 31 -0.6 21 21 WNW 9 15 29.72 1006 10 16.0934 0 0
10:51 pm 22:51 Clear 74 23.3 30 -1.1 20 20 NW 12 19 29.72 1006 10 16.0934 0 0
11:51 pm 23:51 Clear 74 23.3 32 0 21 21 WNW 14 22 29.73 1007 10 16.0934 0 0

Powered by AerisWeather